Вернуться в каталог

FENGYUN 1C DEB

АктивенPO
NORAD 32451·DEBRIS·🇨🇳 China

Запущен May 10, 1999 с Taiyuan Satellite Launch Center

Loading…

Ближайшие Пролёты (ближайшие 24 часа)

TLE

СвежийSource: Space-Track

Эпоха: Sep 14, 2026, 05:54 UTC

1 32451U 99025DBP 26257.24583350  .00001763  00000-0  13297-2 0  9993
2 32451  99.9874 260.8226 0182436 191.8135 167.8711 13.88179828655856

Отслеживайте FENGYUN 1C DEB в реальном времени с AllMySat

Download on the App Store